Weather History for Luverne, MN

Change the Weather History Date:

Sunday, June 16, 2013

  Actual Average (KFSD) Record (KFSD)
Temperature  
Mean Temperature 68 °F 68 °F  
Max Temperature 82 °F 80 °F 99 °F (1959)
Min Temperature 53 °F 57 °F 40 °F (1976)
Degree Days  
Heating Degree Days 0 1  
Month to date heating degree days 41  
Since 1 June heating degree days 41  
Since 1 July heating degree days 7696  
Cooling Degree Days 2 4  
Month to date cooling degree days 50  
Year to date cooling degree days 86  
Since 1 June cooling degree days 50  
Growing Degree Days 18 (Base 50)    
Moisture  
Dew Point 51 °F    
Average Humidity 55    
Maximum Humidity 88    
Minimum Humidity 25    
Precipitation  
Precipitation 0.00 in 0.14 in 4.26 in (1957)
Month to date precipitation 2.13  
Year to date precipitation 11.46  
Snow  
Snow 0.00 in 0.00 in 0.00 in ()
Month to date snowfall 0.0  
Since 1 June snowfall 0.0  
Since 1 July snowfall 44.5  
Snow Depth -    
Sea Level Pressure  
Sea Level Pressure 29.98 in    
Wind  
Wind Speed 4 mph (West)    
Max Wind Speed 22 mph    
Max Gust Speed 26 mph    
Visibility 10 miles    
Events      
T = Trace of Precipitation, MM = Missing Value Source: NWS Daily Summary

Daily Weather History Graph

Daily Weather History Graph

Search for Another Location

Airport:

Trip Planner

Search our weather history database for the weather conditions in past years. The results will help you decide how hot, cold, wet, or windy it might be!

Date:

Astronomy

Jun. 16, 2013 Rise Set
Actual Time 5:42 AM CDT 9:08 PM CDT
Civil Twilight 5:06 AM CDT 9:44 PM CDT
Nautical Twilight 4:19 AM CDT 10:31 PM CDT
Astronomical Twilight 3:20 AM CDT 11:30 PM CDT
Moon 1:33 PM CDT (6/16) 1:01 AM CDT (6/16)
Length of Visible Light 16h 37m
Length of Day
15h 25m
Waxing Crescent, 50% of the Moon is Illuminated
Jun 16
Waxing Crescent
Jun 16
First Quarter
Jun 23
Full
Jun 29
Last Quarter
Jul 8
New

Hourly Weather History & Observations

Time (CDT) Temp. Dew Point Humidity Pressure Visibility Wind Dir Wind Speed Gust Speed Precip Events Conditions
12:14 AM 64.4 °F 55.4 °F 73% 29.97 in 10.0 mi Calm Calm - N/A   Clear
12:34 AM 62.6 °F 55.4 °F 77% 29.98 in 10.0 mi NNW 4.6 mph - N/A   Clear
12:53 AM 62.6 °F 55.4 °F 77% 29.98 in 10.0 mi WNW 4.6 mph - N/A   Clear
1:14 AM 62.6 °F 55.4 °F 77% 29.98 in 10.0 mi North 3.5 mph - N/A   Clear
1:33 AM 62.6 °F 55.4 °F 77% 29.97 in 10.0 mi NW 3.5 mph - N/A   Clear
1:54 AM 62.6 °F 55.4 °F 77% 29.97 in 10.0 mi Calm Calm - N/A   Clear
2:14 AM 60.8 °F 55.4 °F 82% 29.97 in 10.0 mi Calm Calm - N/A   Clear
2:33 AM 60.8 °F 55.4 °F 82% 29.97 in 10.0 mi Calm Calm - N/A   Clear
2:54 AM 60.8 °F 53.6 °F 77% 29.97 in 10.0 mi Calm Calm - N/A   Clear
3:14 AM 59.0 °F 53.6 °F 82% 29.98 in 10.0 mi Calm Calm - N/A   Clear
3:33 AM 59.0 °F 53.6 °F 82% 29.98 in 10.0 mi Calm Calm - N/A   Clear
3:54 AM 59.0 °F 53.6 °F 82% 29.98 in 10.0 mi Calm Calm - N/A   Clear
4:13 AM 59.0 °F 51.8 °F 77% 29.98 in 10.0 mi Calm Calm - N/A   Clear
4:34 AM 55.4 °F 51.8 °F 88% 29.98 in 10.0 mi Calm Calm - N/A   Clear
4:54 AM 57.2 °F 51.8 °F 82% 29.98 in 10.0 mi Calm Calm - N/A   Clear
5:13 AM 57.2 °F 51.8 °F 82% 29.98 in 10.0 mi Calm Calm - N/A   Clear
5:34 AM 53.6 °F 50.0 °F 88% 30.00 in 10.0 mi Calm Calm - N/A   Clear
5:54 AM 53.6 °F 50.0 °F 88% 29.99 in 10.0 mi Calm Calm - N/A   Clear
6:13 AM 53.6 °F 50.0 °F 88% 30.00 in 7.0 mi Calm Calm - N/A   Clear
6:34 AM 55.4 °F 51.8 °F 88% 30.00 in 10.0 mi Calm Calm - N/A   Clear
6:54 AM 55.4 °F 51.8 °F 88% 30.00 in 10.0 mi Calm Calm - N/A   Clear
7:13 AM 59.0 °F 53.6 °F 82% 30.00 in 10.0 mi Calm Calm - N/A   Clear
7:34 AM 60.8 °F 53.6 °F 77% 30.00 in 10.0 mi Calm Calm - N/A   Clear
7:54 AM 62.6 °F 55.4 °F 77% 30.00 in 10.0 mi Calm Calm - N/A   Clear
8:13 AM 64.4 °F 57.2 °F 77% 30.00 in 10.0 mi Calm Calm - N/A   Clear
8:34 AM 68.0 °F 53.6 °F 60% 30.00 in 10.0 mi Calm Calm - N/A   Clear
8:54 AM 69.8 °F 53.6 °F 56% 30.01 in 10.0 mi West 3.5 mph - N/A   Clear
9:13 AM 71.6 °F 53.6 °F 53% 30.01 in 10.0 mi West 3.5 mph - N/A   Clear
9:34 AM 73.4 °F 53.6 °F 50% 30.01 in 10.0 mi WNW 4.6 mph - N/A   Clear
9:54 AM 73.4 °F 51.8 °F 47% 30.01 in 10.0 mi West 6.9 mph - N/A   Clear
10:13 AM 73.4 °F 53.6 °F 50% 30.00 in 10.0 mi WNW 6.9 mph - N/A   Clear
10:34 AM 77.0 °F 51.8 °F 41% 29.99 in 10.0 mi WNW 5.8 mph - N/A   Clear
10:54 AM 77.0 °F 53.6 °F 44% 29.99 in 10.0 mi West 4.6 mph - N/A   Clear
11:13 AM 78.8 °F 50.0 °F 36% 29.99 in 10.0 mi WNW 8.1 mph - N/A   Clear
11:34 AM 78.8 °F 46.4 °F 32% 29.99 in 10.0 mi WSW 6.9 mph - N/A   Clear
11:54 AM 80.6 °F 48.2 °F 32% 29.98 in 10.0 mi WSW 4.6 mph - N/A   Clear
12:13 PM 80.6 °F 50.0 °F 34% 29.99 in 10.0 mi West 8.1 mph - N/A   Clear
12:34 PM 80.6 °F 46.4 °F 30% 30.00 in 10.0 mi WNW 5.8 mph - N/A   Clear
12:53 PM 80.6 °F 44.6 °F 28% 29.99 in 10.0 mi WNW 4.6 mph 9.2 mph N/A   Clear
1:14 PM 82.4 °F 46.4 °F 28% 30.00 in 10.0 mi WNW 5.8 mph - N/A   Clear
1:33 PM 82.4 °F 46.4 °F 28% 30.00 in 10.0 mi WNW 8.1 mph 16.1 mph N/A   Clear
1:53 PM 82.4 °F 42.8 °F 25% 30.00 in 10.0 mi West 16.1 mph - N/A   Clear
2:14 PM 82.4 °F 42.8 °F 25% 30.00 in 10.0 mi WSW 8.1 mph 11.5 mph N/A   Scattered Clouds
2:33 PM 82.4 °F 46.4 °F 28% 29.99 in 10.0 mi SW 12.7 mph - N/A   Clear
2:54 PM 82.4 °F 46.4 °F 28% 29.99 in 10.0 mi WSW 12.7 mph 18.4 mph N/A   Clear
3:14 PM 80.6 °F 46.4 °F 30% 29.99 in 10.0 mi WSW 11.5 mph - N/A   Clear
3:33 PM 80.6 °F 46.4 °F 30% 29.99 in 10.0 mi WSW 13.8 mph 18.4 mph N/A   Clear
3:54 PM 80.6 °F 46.4 °F 30% 29.99 in 10.0 mi WSW 17.3 mph 24.2 mph N/A   Clear
4:13 PM 80.6 °F 48.2 °F 32% 29.99 in 10.0 mi WSW 21.9 mph 26.5 mph N/A   Clear
4:33 PM 78.8 °F 46.4 °F 32% 29.98 in 10.0 mi WSW 18.4 mph 24.2 mph N/A   Clear
4:54 PM 78.8 °F 46.4 °F 32% 29.96 in 10.0 mi SW 15.0 mph 21.9 mph N/A   Clear
5:13 PM 78.8 °F 48.2 °F 34% 29.96 in 10.0 mi SW 18.4 mph - N/A   Clear
5:33 PM 78.8 °F 46.4 °F 32% 29.97 in 10.0 mi West 12.7 mph - N/A   Clear
5:54 PM 78.8 °F 48.2 °F 34% 29.95 in 10.0 mi WNW 9.2 mph - N/A   Clear
6:13 PM 78.8 °F 50.0 °F 36% 29.94 in 10.0 mi West 8.1 mph - N/A   Clear
6:34 PM 80.6 °F 46.4 °F 30% 29.94 in 10.0 mi West 8.1 mph - N/A   Clear
6:54 PM 80.6 °F 46.4 °F 30% 29.93 in 10.0 mi WSW 8.1 mph - N/A   Clear
7:13 PM 80.6 °F 46.4 °F 30% 29.92 in 10.0 mi West 8.1 mph - N/A   Clear
7:34 PM 78.8 °F 46.4 °F 32% 29.94 in 10.0 mi West 9.2 mph - N/A   Clear
7:54 PM 78.8 °F 46.4 °F 32% 29.96 in 10.0 mi West 9.2 mph - N/A   Clear
8:13 PM 77.0 °F 50.0 °F 39% 29.97 in 10.0 mi WSW 8.1 mph - N/A   Clear
8:34 PM 73.4 °F 51.8 °F 47% 29.97 in 10.0 mi WSW 6.9 mph - N/A   Clear
8:54 PM 71.6 °F 53.6 °F 53% 29.97 in 10.0 mi WSW 6.9 mph - N/A   Clear
9:13 PM 69.8 °F 53.6 °F 56% 29.97 in 10.0 mi WSW 5.8 mph - N/A   Clear
9:34 PM 68.0 °F 53.6 °F 60% 29.97 in 10.0 mi WSW 6.9 mph - N/A   Clear
9:53 PM 68.0 °F 53.6 °F 60% 29.97 in 10.0 mi WSW 6.9 mph - N/A   Clear
10:14 PM 64.4 °F 53.6 °F 68% 29.98 in 10.0 mi WSW 8.1 mph - N/A   Clear
10:34 PM 64.4 °F 53.6 °F 68% 29.98 in 10.0 mi WSW 6.9 mph - N/A   Clear
10:53 PM 64.4 °F 53.6 °F 68% 29.99 in 10.0 mi SW 6.9 mph - N/A   Clear
11:14 PM 68.0 °F 55.4 °F 64% 30.00 in 10.0 mi WSW 9.2 mph - N/A   Clear
11:34 PM 68.0 °F 55.4 °F 64% 29.99 in 10.0 mi WSW 8.1 mph - N/A   Clear
11:53 PM 66.2 °F 55.4 °F 68% 29.99 in 10.0 mi WSW 8.1 mph - N/A   Clear